User: anonymous   Login
Location: Unspecified
(0.0000°N, 0.0000°E)
Time: 14:33:25
(UTC+00:00)
Language:

POSAT 1 - Orbit

View from above orbital plane
View from above orbital plane
View from above satellite
View from above satellite

Ground track
Ground track

The orbit data is extracted from the following two-line orbital elements,

1 22829U 93061G   17084.86207788 +.00000013 +00000-0 +22275-4 0  9994
2 22829 098.7911 051.0545 0010044 158.7548 253.4807 14.30961951225947
Epoch (UTC): 25 March 2017 20:41:23
Eccentricity: 0.0010044
inclination: 98.7911°
perigee height: 781 km
apogee height: 796 km
right ascension of ascending node: 51.0545°
argument of perigee: 158.7548°
revolutions per day: 14.30961951
mean anomaly at epoch: 253.4807°
orbit number at epoch: 22594

The dashed part of the orbit path shows where the satellite is in the earth's shadow,  

DLR